User: anonymous   Login
Location: 相模原市立博物館
(35.5593°N, 139.3931°E)
Time: 13:28:30
(UTC+09:00)
Language:

BEESAT - Orbit

View from above orbital plane
View from above orbital plane
View from above satellite
View from above satellite

Ground track
Ground track

The orbit data is extracted from the following two-line orbital elements,

1 35933U 09051C   22024.57479913  .00000239  00000-0  64530-4 0  9999
2 35933  98.5782 238.0781 0006457 134.2267 225.9461 14.56707532655229
Epoch (UTC): 24 January 2022 13:47:42
Eccentricity: 0.0006457
inclination: 98.5782°
perigee height: 699 km
apogee height: 708 km
right ascension of ascending node: 238.0781°
argument of perigee: 134.2267°
revolutions per day: 14.56707532
mean anomaly at epoch: 225.9461°
orbit number at epoch: 65522

The dashed part of the orbit path shows where the satellite is in the earth's shadow,  

DLR